Regional Weather Roundup
Issued by NWS State College, PA

Home | Current Version | Previous Version | Graphics & Text | Print | Product List | Glossary On
Versions: 1 2 3 4 5 6 7 8 9 10 11 12 13 14 15 16 17 18 19 20 21 22 23 24 25 26 27 28 29 30 31 32 33 34 35 36 37 38 39 40 41 42 43 44 45 46 47 48 49 50
000
ASUS41 KCTP 290303
RWRCTP

REGIONAL WEATHER ROUNDUP
NATIONAL WEATHER SERVICE STATE COLLEGE PA
1100 PM EDT THU APR 28 2016

Note: "fair" indicates few or no clouds below 12,000 feet with no
significant weather and/or obstructions to visibility.

* = STATION THAT DOES NOT REPORT PRECIPITATION /E.G. RAIN...SNOW...ETC/
    THUNDER OR FOG.

PAZ002>004-007>009-013>016-020>023-029>032-290400-
WESTERN PENNSYLVANIA

CITY           SKY/WX    TMP DP  RH WIND       PRES   REMARKS
ERIE           CLOUDY    44  38  79 NE9       29.99R
MEADVILLE      CLOUDY    42  41  96 VRB3      29.97R
FRANKLIN*      CLOUDY    43  39  87 E6        29.98S
NEW CASTLE     CLOUDY    44  43  96 NE3       29.96F
BEAVER COUNTY  NOT AVBL
BUTLER*        CLOUDY    45  41  87 NE6       29.97F
PITTSBURGH INT DRIZZLE   47  44  90 NE6       29.94F FOG
PITTSBURGH     FOG       47  45  93 N7        29.92S VSB 1/4
INDIANA*       CLOUDY    46  46 100 E6        29.97F FOG
LATROBE        CLOUDY    52  50  93 NE5       29.93S
WASHINGTON CO* CLOUDY    48  46  93 CALM      29.94S
$$

PAZ004>006-010>012-017>019-024>028-033>037-041-042-045-046-049>053-290400-
CENTRAL PENNSYLVANIA

CITY           SKY/WX    TMP DP  RH WIND       PRES   REMARKS
BRADFORD       CLOUDY    40  38  93 E6        29.98F
DUBOIS         CLOUDY    40  39  97 E10       29.95F FOG
CLEARFIELD     CLOUDY    42  39  89 E6        29.99F FOG
JOHNSTOWN      FOG       43  40  89 CALM      29.94S VSB 1/2
ALTOONA        CLOUDY    42  40  92 E5        29.99F FOG
STATE COLLEGE  DRIZZLE   42  41  97 NE3       30.01S
WILLIAMSPORT   LGT RAIN  46  43  89 CALM      30.03F
SELINSGROVE    CLOUDY    46  43  89 CALM      30.04F
FT INDIANTOWN  NOT AVBL
CAPITAL CITY   CLOUDY    46  42  86 E7        30.04S
HARRISBURG     CLOUDY    45  41  86 E7        30.03F
YORK           CLOUDY    45  42  89 E6        30.03S
$$

PAZ038>040-043-044-047-048-054-055-060>062-067>071-290400-
EASTERN PENNSYLVANIA

CITY           SKY/WX    TMP DP  RH WIND       PRES   REMARKS
SCRANTON       CLOUDY    45  42  89 CALM      30.03S
MOUNT POCONO   CLOUDY    42  40  92 SE3       30.01S
ALLENTOWN      CLOUDY    46  41  82 SE5       30.05F
QUAKERTOWN*    CLOUDY    41  41 100 CALM      30.06R
READING        CLOUDY    45  41  86 CALM      30.04S
LANCASTER      CLOUDY    43  42  97 E5        30.04F
COATESVILLE    CLOUDY    43  43 100 CALM      30.04F FOG
POTTSTOWN      CLOUDY    42  42 100 CALM      30.06F
BLUE BELL      CLOUDY    41  41 100 CALM      30.05S
DOYLESTOWN     CLOUDY    41  41 100 CALM      30.05F
WILLOW GROVE   NOT AVBL
NORTH PHILA    CLOUDY    45  42  89 E6        30.06F
PHILADELPHIA   CLOUDY    45  41  86 NE6       30.06S FOG
$$



USA.gov is the U.S. government's official web portal to all federal, state and local government web resources and services.